Theta_e
310 310 310 310 309 308 308 307 307 306 307 307 308 309 309 310 310 310 310 310 309 309 309 309 309 309 309 309 309 309 309 308 308 308 307 307 306 305 305 304 304 305 305 305 305 305 305 305 305 305 305 305 305 305 305 305 305 305 305 305 304 304 304 304 304 305 306 306 305 305 305 305 305 305 305 305 305 305 305 305 306 306 306 306 306
310 310 310 310 310 310 309 309 308 307 306 306 306 307 307 308 309 310 310 310 309 309 309 309 309 309 309 309 309 308 308 308 308 308 307 307 306 306 305 304 304 304 305 305 305 305 305 305 305 305 305 305 305 305 305 305 305 304 304 304 304 304 304 304 304 304 305 305 305 305 305 305 305 305 305 305 305 305 305 305 305 306 306 306 306
310 310 310 310 310 310 310 310 310 309 308 307 306 306 306 306 307 308 309 309 309 309 309 308 308 308 308 308 308 308 308 308 308 308 307 307 306 306 306 305 304 304 304 305 305 305 305 304 304 304 304 305 305 305 305 305 304 304 304 304 304 304 304 303 304 304 304 305 305 304 304 304 304 305 305 305 305 305 305 305 305 305 305 305 306
309 309 309 309 309 309 310 310 310 310 310 309 308 307 306 305 305 306 308 309 308 308 308 308 308 308 308 308 308 308 308 308 308 307 307 307 306 306 306 305 305 304 304 304 305 305 305 305 305 305 305 305 304 304 304 304 304 304 304 304 304 304 304 303 303 303 304 304 305 305 304 304 304 304 304 305 305 305 304 304 305 305 305 305 305
309 309 309 309 309 309 309 309 310 310 310 310 310 308 306 305 305 305 306 308 308 308 308 308 308 308 308 308 308 308 308 308 307 307 307 307 306 306 306 306 305 305 304 304 304 305 305 305 305 305 305 305 305 305 305 304 304 304 304 304 304 304 304 304 303 303 303 304 304 305 304 304 304 304 305 304 304 305 304 304 304 304 304 304 304
309 309 309 309 309 309 309 309 309 310 310 310 310 309 307 306 305 305 305 307 308 308 308 308 308 308 308 308 308 308 307 307 307 307 307 307 306 306 306 306 306 306 305 305 305 304 305 305 305 305 305 305 305 305 305 305 305 305 304 304 304 304 304 304 304 303 303 304 304 304 305 305 305 305 305 305 304 304 304 304 304 304 304 304 304
308 309 309 309 309 309 309 309 309 309 310 310 310 309 308 307 305 305 305 305 307 308 308 308 308 308 308 308 307 307 307 307 307 307 307 307 307 306 306 306 306 306 306 305 305 305 305 305 305 305 305 305 305 305 306 306 305 305 305 305 304 304 304 304 304 304 304 304 304 304 305 305 305 305 305 305 304 304 304 304 304 304 304 304 304
308 308 308 309 308 308 308 308 308 309 309 310 309 308 308 307 306 305 304 305 306 307 307 307 307 308 308 307 307 307 307 307 307 307 307 307 307 307 306 306 306 306 306 306 306 306 306 306 306 306 305 305 305 305 306 306 306 306 305 305 305 305 304 304 304 304 304 304 304 304 304 304 305 305 305 304 304 304 304 304 304 304 304 304 304
308 308 308 308 308 308 308 308 308 308 308 309 309 308 308 307 306 305 304 305 305 306 307 307 307 307 307 307 307 307 307 307 307 307 307 307 307 307 307 307 306 306 306 306 306 306 306 306 306 306 306 306 306 306 306 306 306 306 306 306 305 305 305 305 304 304 304 304 304 304 304 304 304 304 304 305 304 304 305 304 305 304 304 305 305
307 307 307 307 307 307 307 308 308 308 308 309 309 309 308 307 306 305 304 304 304 305 306 307 307 306 307 307 307 307 307 307 307 307 307 307 307 307 307 307 307 307 307 306 306 306 306 306 306 306 306 306 306 306 306 306 306 306 306 306 305 305 305 305 305 304 305 304 304 304 304 305 305 305 305 305 305 305 305 305 305 305 304 304 304
306 307 307 307 307 307 307 307 308 308 308 308 308 308 308 307 306 305 304 304 304 305 306 307 307 306 306 307 307 307 307 307 307 307 307 307 307 307 307 307 307 307 307 307 307 307 307 307 307 306 306 306 306 306 306 306 306 306 306 306 305 305 305 305 305 305 305 305 305 305 305 305 305 305 305 305 304 304 304 304 304 303 303 303 302
306 306 306 306 306 307 307 307 307 308 308 308 308 308 307 307 306 305 304 304 304 304 305 306 307 306 306 306 306 307 307 307 307 307 307 307 307 307 307 307 307 307 307 307 307 307 307 307 307 307 307 306 306 306 306 306 306 306 306 306 306 306 306 305 305 305 305 305 305 305 305 305 305 305 304 304 303 303 303 302 302 302 301 301 301
306 306 306 306 306 307 307 307 307 308 308 308 308 308 307 307 306 305 304 304 304 304 304 305 306 306 306 305 306 306 306 307 307 307 307 307 307 307 307 307 308 308 308 308 308 308 308 308 308 307 307 307 307 307 306 306 306 306 306 306 306 306 306 306 306 306 306 305 305 305 305 305 304 304 303 302 302 302 302 301 301 301 301 301 301
305 306 306 306 306 306 307 307 307 308 308 308 308 308 307 306 306 305 304 304 304 304 304 305 305 306 306 305 305 305 306 306 306 306 306 307 307 307 307 307 308 308 308 309 308 308 308 308 308 307 307 307 307 307 307 307 307 306 306 306 306 306 306 306 306 305 305 305 305 305 304 304 303 303 302 302 301 301 301 301 301 301 301 301 301
305 305 305 305 306 306 306 307 307 308 309 308 308 307 306 306 306 305 304 304 303 304 304 304 305 306 306 305 305 305 305 305 305 305 306 306 306 306 307 307 308 308 308 308 308 308 308 308 308 307 307 307 307 307 307 307 306 307 306 306 306 306 306 305 305 305 305 305 304 304 303 303 303 302 302 301 301 301 301 300 300 300 300 300 301
305 305 305 305 305 306 306 306 307 307 308 307 307 307 306 306 305 305 304 303 303 303 304 304 305 306 306 306 305 305 305 305 305 305 305 305 306 306 307 307 307 308 307 308 308 308 308 308 307 307 307 307 307 307 307 307 306 306 306 306 306 306 305 305 305 305 305 304 304 303 302 302 302 302 302 301 301 301 300 300 300 299 299 299 300
305 305 304 305 305 305 305 306 306 307 307 306 306 306 305 305 305 304 304 303 303 303 304 304 305 305 306 306 306 305 305 305 305 305 305 306 306 306 306 306 307 307 307 307 307 307 307 307 307 307 307 307 307 307 306 306 306 306 306 306 305 305 305 305 304 304 304 303 303 303 302 302 302 302 302 301 301 300 300 299 299 299 298 298 298
305 305 304 305 305 305 305 306 306 306 306 306 305 305 305 305 305 304 303 303 303 303 304 304 305 306 306 306 306 306 306 305 305 305 305 305 306 306 306 306 306 307 307 307 307 307 307 307 307 307 307 307 306 306 306 306 305 305 305 305 305 304 304 304 304 304 304 303 303 303 302 302 302 301 301 301 300 299 299 298 298 297 297 297 297
305 305 305 305 304 305 305 305 305 306 305 305 305 305 305 305 304 304 303 303 303 304 304 305 306 306 306 306 306 306 306 306 306 305 305 305 305 305 306 306 306 306 307 307 307 307 307 307 307 306 306 306 306 305 305 305 304 304 304 304 304 304 304 304 303 303 303 303 303 302 302 301 301 300 300 299 298 298 297 297 297 296 296 296 295
305 305 305 305 305 304 304 304 304 304 304 304 304 304 304 304 304 303 303 303 304 305 305 306 306 306 306 306 306 306 305 305 305 305 305 305 305 305 306 306 306 306 306 306 306 306 306 306 306 306 305 305 305 305 304 304 304 304 304 303 303 303 303 303 303 302 302 302 302 301 301 300 299 298 298 297 297 297 297 296 296 296 295 295 295
305 305 304 304 305 304 304 304 304 304 304 304 304 304 304 303 303 303 303 304 304 305 306 306 305 305 305 305 305 305 305 305 305 305 305 305 305 305 305 306 306 306 306 306 306 306 306 305 305 305 305 305 305 304 304 304 304 303 303 303 303 302 302 302 301 301 300 300 299 298 298 297 297 297 296 296 296 296 296 295 295 295 295 294 294
305 304 304 304 304 304 304 304 303 303 303 303 303 303 303 303 303 303 304 304 305 305 305 305 305 304 304 303 303 303 303 303 304 304 304 304 305 305 305 305 305 305 306 306 305 305 305 305 304 304 304 304 304 304 303 303 302 302 302 302 301 301 300 299 299 298 298 297 296 296 296 296 295 295 295 295 295 295 295 294 294 294 294 293 293
304 304 304 303 303 304 303 303 303 302 302 302 302 302 302 302 303 303 304 304 304 304 303 303 303 303 302 301 301 300 301 301 302 302 302 302 303 303 304 304 304 304 305 305 305 304 304 304 304 303 303 303 302 301 301 300 300 300 300 299 299 298 298 297 297 296 296 295 295 294 294 294 294 294 294 294 294 294 294 294 293 293 292 292 292
303 302 302 303 303 303 303 302 302 301 301 301 301 301 302 302 302 302 302 302 303 302 301 301 300 300 300 300 299 299 299 299 300 300 300 300 300 301 302 302 302 303 303 302 303 303 303 302 302 301 300 300 299 299 299 298 298 298 297 297 296 296 295 295 295 295 294 294 293 293 293 293 293 293 293 293 293 293 293 292 292 292 291 291 290
301 301 301 301 301 301 301 301 301 300 300 301 301 301 301 301 301 300 300 300 300 300 300 299 299 299 298 298 298 298 298 298 299 299 299 299 299 300 300 300 300 300 300 300 300 300 300 299 298 298 297 297 297 297 296 296 296 295 295 295 295 294 294 294 293 293 293 292 292 292 292 292 292 292 292 292 292 292 292 291 291 290 290 289 288
301 300 300 300 300 300 299 299 299 299 300 300 300 300 300 300 300 299 299 299 299 299 299 298 298 297 297 297 297 297 297 297 298 298 299 298 298 299 299 298 298 298 297 297 297 296 296 295 295 295 295 295 294 294 294 294 294 294 293 293 293 293 293 292 292 292 292 291 291 291 291 291 291 291 291 290 290 290 290 289 289 288 288 287 286
300 300 300 299 299 298 298 298 299 299 299 300 299 299 299 299 299 299 298 298 298 298 298 297 297 297 297 296 296 296 296 296 296 296 296 296 296 296 296 295 295 295 294 294 294 294 293 293 292 292 292 292 292 292 292 292 292 292 292 292 291 291 291 291 291 291 291 291 290 290 290 289 289 289 288 288 288 288 287 287 287 286 286 286 285
299 298 299 298 298 298 297 297 298 298 298 298 298 298 298 298 298 298 297 297 297 297 297 296 296 295 295 295 295 295 294 293 293 293 293 293 293 293 293 292 292 292 292 292 292 292 291 291 290 290 290 290 290 290 290 291 290 290 290 290 290 290 290 290 290 290 289 289 289 288 288 287 287 287 286 286 286 286 285 285 285 285 285 284 284
297 297 297 297 297 297 297 297 297 297 296 296 297 297 297 297 297 297 296 296 296 296 296 296 295 294 294 294 293 293 292 291 290 290 290 290 290 290 290 290 290 290 290 290 290 290 290 290 289 289 289 289 289 289 289 289 289 289 289 289 289 289 288 288 288 288 288 287 287 287 286 286 285 285 284 284 284 284 283 283 283 283 282 282 282
296 296 296 296 296 296 296 296 296 296 296 295 295 295 295 295 295 295 295 295 295 294 294 294 293 293 293 292 291 291 290 290 289 288 288 288 288 288 288 288 288 288 288 288 288 288 288 288 288 288 288 288 288 287 287 287 287 287 287 287 287 286 286 286 286 285 285 285 285 284 284 283 283 282 282 282 282 281 281 281 281 280 280 280 280
294 294 294 294 294 294 294 294 294 295 295 295 295 295 294 294 293 293 293 293 292 291 291 291 290 290 290 290 289 288 288 288 288 288 288 288 287 287 287 287 287 287 287 287 287 287 287 287 287 286 286 286 286 286 285 285 285 285 285 284 284 284 284 283 283 283 283 282 282 281 281 281 280 280 280 280 280 279 279 279 279 278 278 278 278
291 292 292 292 292 292 292 292 292 292 293 293 293 293 293 293 292 291 290 290 289 289 288 288 288 287 287 288 288 287 286 287 287 287 286 286 286 286 285 285 285 285 285 285 285 285 285 285 285 284 284 284 284 283 283 283 283 282 282 282 282 281 281 281 281 280 280 280 279 279 279 279 279 279 278 278 278 278 278 278 277 277 277 277 277
289 290 291 291 291 290 290 290 290 290 290 290 291 291 291 292 292 291 289 288 288 287 286 286 286 286 286 286 286 286 286 286 285 285 284 284 284 284 284 284 284 284 283 283 283 283 283 282 282 282 282 282 282 281 281 281 281 280 280 280 280 280 279 279 279 278 278 278 278 278 278 278 278 277 277 277 277 277 277 277 276 276 276 276 276
288 288 289 289 289 289 289 289 288 288 288 288 288 288 289 290 291 290 289 287 286 285 285 285 284 284 284 284 284 284 284 284 283 283 283 282 282 282 282 282 282 282 281 281 281 280 281 280 280 280 280 280 280 280 280 279 279 279 279 279 278 278 278 278 278 277 277 277 277 277 277 276 276 276 276 276 276 276 276 275 275 275 275 275 275
286 287 287 287 287 287 287 287 287 287 287 286 287 287 287 287 287 288 288 286 285 284 283 283 282 282 282 282 282 281 281 282 281 281 281 281 281 281 280 280 280 280 280 279 279 279 279 279 279 279 279 279 279 278 278 278 278 278 277 277 277 277 277 276 276 276 276 276 276 276 275 275 275 275 275 275 275 275 274 274 274 274 274 274 274
284 285 285 285 286 286 286 286 286 286 286 285 285 285 285 285 285 285 285 284 284 283 282 282 281 280 280 280 280 279 279 279 279 279 279 279 279 279 279 279 279 279 278 278 278 278 278 278 278 278 277 277 277 277 277 277 276 276 276 276 276 275 275 275 275 275 275 275 275 274 274 274 274 274 274 273 273 273 273 273 273 273 273 273 273
283 284 284 284 284 284 285 285 284 284 284 284 283 283 283 283 283 283 283 282 282 282 282 281 280 280 279 279 278 278 278 277 277 277 277 278 278 278 277 277 277 277 277 277 277 277 277 277 277 277 276 276 276 276 276 275 275 275 275 275 275 274 274 274 274 274 274 274 273 273 273 273 273 272 272 272 272 272 272 272 272 271 271 271 271
282 282 282 282 283 283 283 283 283 283 282 282 282 281 281 281 281 281 281 281 280 280 280 280 279 278 278 277 277 277 276 276 276 276 276 276 276 276 276 276 276 276 277 277 276 276 276 276 276 276 276 276 275 275 275 275 275 274 274 274 274 274 273 273 273 273 273 272 272 272 272 271 271 271 271 271 270 270 270 270 270 270 270 269 269
280 280 280 281 281 281 281 281 281 281 281 280 280 280 280 280 279 279 279 279 278 278 278 277 277 276 276 276 275 275 275 275 275 275 275 275 275 275 275 276 276 276 276 276 276 275 275 275 275 275 275 275 274 274 274 274 274 273 273 273 273 273 272 272 272 272 272 271 271 271 270 270 270 270 270 269 269 269 269 269 268 268 268 268 268
278 278 278 278 279 279 279 279 279 279 279 279 279 278 278 278 277 277 277 276 276 276 276 275 275 274 274 274 274 274 274 274 274 274 274 275 275 275 275 275 275 274 274 274 274 274 274 274 274 273 273 273 273 273 273 273 273 273 272 272 272 272 271 271 271 271 270 270 270 270 269 269 269 269 269 268 268 268 268 268 268 267 267 267 267
276 277 276 276 276 277 277 277 277 277 277 277 276 276 276 275 275 275 275 275 275 274 274 274 274 274 274 274 274 273 273 274 274 273 274 274 273 273 273 273 273 273 273 273 273 273 272 272 272 272 272 272 272 272 272 272 272 271 271 271 271 271 270 270 270 270 270 269 269 269 269 269 269 269 268 268 268 268 268 268 267 267 267 267 266
275 275 275 275 275 275 275 275 275 275 274 274 274 274 274 274 274 274 273 273 273 274 273 273 273 273 273 273 273 273 273 273 273 272 272 272 272 272 272 272 272 272 272 272 272 272 272 272 272 271 271 271 271 271 271 271 271 270 270 270 270 270 270 270 269 269 269 269 269 269 269 268 268 268 268 268 268 267 267 267 267 266 266 266 266
274 274 274 274 274 274 274 274 274 273 273 273 273 273 273 273 273 273 273 272 272 273 273 273 272 272 272 272 272 272 272 272 272 272 272 272 272 272 272 271 271 271 271 271 271 271 271 271 271 271 270 270 270 270 270 270 270 270 270 270 270 269 269 269 269 269 269 269 269 269 268 268 268 267 267 267 267 266 266 266 266 265 265 265 265
272 272 272 272 272 272 272 272 272 272 272 272 272 272 272 272 272 272 272 272 272 272 272 272 272 272 272 272 271 271 271 271 271 271 271 271 271 271 271 271 271 271 271 271 270 270 270 270 270 270 270 269 269 269 269 269 269 269 269 269 269 269 269 269 268 268 268 268 268 268 267 267 267 267 266 266 266 265 265 265 265 264 264 264 264
271 271 272 271 271 271 271 271 271 271 271 271 271 271 271 271 271 271 271 271 271 271 271 271 271 271 271 271 271 271 271 271 271 270 270 270 270 270 270 270 270 270 270 270 270 270 270 270 269 269 269 269 269 269 269 269 269 269 269 269 269 269 268 268 268 268 267 267 267 267 266 266 266 266 265 265 265 265 265 264 264 264 264 263 263
270 271 271 271 271 271 271 271 271 271 271 270 270 270 270 270 270 270 270 270 270 270 270 270 270 270 270 270 270 270 270 270 270 270 270 269 269 269 269 269 269 269 269 269 269 269 269 269 269 269 269 269 269 269 269 269 269 269 268 268 268 268 268 267 267 267 266 266 266 266 265 265 265 265 265 264 264 264 264 264 263 263 263 263 263
270 270 270 270 270 270 270 270 270 270 270 270 270 270 270 270 269 270 270 269 270 270 270 269 270 270 270 270 270 269 269 269 269 269 269 269 269 269 269 269 269 269 269 269 269 269 269 269 269 269 269 269 269 269 269 269 268 268 268 268 268 267 267 266 266 266 266 265 265 265 265 265 264 264 264 264 264 264 263 263 263 263 263 262 263
269 269 269 269 269 269 269 269 269 269 269 269 269 269 269 269 269 269 269 269 269 269 269 269 269 269 269 269 269 269 269 269 269 269 269 269 269 269 269 269 269 269 269 269 269 269 269 269 269 269 269 269 269 269 268 268 268 268 268 267 267 267 266 266 266 266 265 265 265 265 264 264 264 264 263 263 263 263 263 263 262 262 262 262 262
268 269 269 269 269 269 269 269 269 269 269 269 269 269 269 269 269 269 269 269 269 269 269 269 269 269 269 269 269 269 269 269 269 269 269 269 269 269 269 269 269 269 269 269 269 269 269 268 268 268 268 268 268 268 268 268 268 267 267 267 267 266 266 266 265 265 265 264 264 264 264 264 263 263 263 263 262 262 262 262 262 262 261 261 261
268 268 268 268 268 268 269 269 269 269 269 269 269 269 269 269 269 269 269 269 269 269 269 269 269 269 269 269 269 269 269 269 269 269 269 269 269 269 269 269 269 268 268 268 268 268 268 268 268 268 268 268 268 268 268 267 267 267 267 266 266 266 265 265 265 264 264 264 264 263 263 263 263 262 262 262 262 261 261 261 261 261 260 260 260
268 268 268 268 268 268 268 268 268 268 268 268 269 269 269 269 269 269 269 269 269 269 269 269 269 269 269 268 268 268 268 268 268 268 268 268 268 268 268 268 268 268 268 268 268 268 268 268 268 268 268 268 267 267 267 267 267 266 266 266 265 265 265 264 264 264 263 263 263 263 262 262 262 262 262 261 261 261 261 260 260 260 260 260 260
Wind_Speed
2 1 1 2 3 4 6 8 10 12 14 16 17 17 17 17 17 18 19 20 21 23 25 27 29 31 32 33 35 36 37 38 39 39 40 41 40 39 38 37 36 35 34 33 33 33 32 31 30 28 27 26 26 26 26 25 24 24 24 23 23 22 21 21 21 21 21 19 18 17 16 16 15 14 14 15 14 14 14 14 14 14 13 12 12
4 4 5 5 6 6 7 8 9 11 13 15 16 17 18 18 19 19 21 21 22 23 24 26 28 30 31 33 34 35 37 38 39 40 41 41 41 40 39 38 37 36 35 35 35 34 34 33 31 30 29 28 28 27 27 26 26 25 25 24 24 23 22 22 22 22 22 21 19 19 18 17 17 16 16 16 16 16 16 16 16 16 16 16 15
7 8 9 9 10 10 11 11 11 12 13 14 15 16 17 18 20 21 22 22 22 23 24 25 27 29 31 32 33 34 36 37 38 40 41 42 42 41 40 39 39 37 36 36 35 35 35 33 32 31 30 30 30 29 28 28 27 27 26 26 25 24 23 22 22 22 22 22 21 20 18 17 18 17 17 17 17 17 18 18 19 19 19 18 18
11 13 14 14 15 15 16 16 16 16 15 15 15 15 16 18 20 22 22 23 23 23 24 25 28 30 31 32 33 34 35 37 38 39 40 42 42 41 41 40 40 39 37 37 36 36 35 34 33 32 31 31 31 31 30 30 29 28 27 26 26 25 23 23 23 23 22 22 21 20 19 19 18 18 17 17 18 18 18 19 19 19 20 20 20
16 18 19 20 21 21 21 21 21 20 19 18 17 17 17 18 20 21 22 23 23 24 25 27 29 30 31 32 33 34 35 36 37 38 40 41 41 41 41 40 40 39 38 37 37 36 36 35 34 33 32 33 33 33 32 31 31 30 29 28 27 25 24 24 24 23 23 23 21 20 20 20 20 19 18 18 18 18 18 18 18 18 19 19 20
25 25 24 25 26 26 26 26 25 24 23 21 19 19 19 20 20 21 22 23 24 25 26 28 29 30 31 32 33 34 35 35 36 37 38 39 40 40 40 40 40 39 39 38 38 37 37 36 35 34 34 34 34 34 33 32 32 31 30 29 27 26 26 25 25 24 24 23 22 21 21 21 22 21 20 19 19 19 19 19 18 19 19 19 20
30 31 31 32 31 30 30 29 28 27 26 23 22 21 22 21 21 22 22 24 25 26 27 28 30 31 31 32 34 34 35 36 36 37 37 38 38 39 39 39 39 39 39 38 38 38 38 37 36 35 35 35 35 34 33 32 32 32 31 29 28 27 27 26 26 25 25 25 24 22 22 22 22 23 21 20 20 20 20 19 19 19 19 20 20
29 31 32 33 32 32 31 30 30 30 29 26 25 24 24 23 22 23 24 25 27 27 27 28 30 32 33 33 34 35 35 36 37 37 37 37 37 37 38 38 39 39 38 38 38 38 37 37 36 36 36 35 34 33 33 32 32 32 31 30 29 28 28 28 28 27 27 27 26 25 23 22 22 23 23 22 21 22 21 20 20 21 21 20 20
24 26 28 29 30 30 30 29 31 33 32 30 29 27 26 25 24 24 26 27 28 28 27 28 30 32 34 34 35 35 36 37 37 37 36 36 37 37 37 37 37 37 37 37 37 37 37 37 36 36 35 34 34 33 32 32 31 32 31 31 30 30 30 29 29 29 29 28 28 26 24 22 22 22 22 21 21 21 22 21 21 22 22 21 20
25 25 27 28 27 27 27 28 30 33 35 33 32 29 28 27 26 26 27 28 29 28 28 28 30 32 34 35 36 36 37 37 37 36 36 36 36 36 36 36 36 36 36 36 36 36 36 36 35 34 33 33 33 32 32 31 31 31 31 30 30 30 30 30 29 29 28 28 27 26 24 23 21 19 19 19 19 19 20 20 20 20 20 19 18
26 27 28 27 25 25 27 28 29 31 35 35 34 31 29 28 27 27 28 29 30 30 29 30 30 32 34 35 36 37 38 37 37 36 36 35 35 35 35 35 35 35 34 34 34 34 34 33 33 32 32 32 32 32 32 31 31 30 30 29 29 29 29 28 28 27 27 26 26 25 23 22 20 17 16 17 17 17 18 18 17 17 16 15 15
26 27 26 25 24 23 25 27 29 31 33 35 35 32 30 30 29 28 29 30 31 31 31 31 31 31 33 35 37 38 37 37 37 36 36 35 35 34 34 34 34 34 34 33 32 31 31 31 31 31 31 31 31 31 31 30 29 28 28 28 27 27 27 26 25 25 24 24 24 23 22 20 19 16 15 16 16 16 17 16 15 14 15 14 14
24 25 25 24 23 23 23 26 29 31 32 34 34 33 31 31 31 29 29 30 31 32 32 32 31 31 32 35 37 38 37 37 37 36 36 36 35 34 34 34 33 33 33 32 31 31 30 31 31 31 31 31 30 30 29 29 28 28 27 27 27 26 26 25 25 24 24 23 23 23 21 19 18 16 15 16 17 18 17 16 15 15 15 16 16
22 22 23 23 22 22 23 25 27 29 30 31 33 33 32 32 31 30 29 30 31 32 33 32 32 32 32 34 36 37 38 37 37 36 36 36 35 34 34 33 33 32 32 31 31 31 31 31 31 31 31 31 31 30 29 29 28 28 28 28 27 27 27 26 26 25 25 24 23 23 21 19 19 19 18 18 19 19 18 18 17 17 17 17 16
19 20 20 21 21 21 21 23 24 25 26 29 31 32 33 32 31 29 29 30 31 32 33 33 33 32 32 33 35 36 37 37 36 36 35 35 34 34 34 33 33 33 33 32 31 31 31 31 31 31 31 31 31 30 30 29 29 29 28 28 28 28 28 27 26 26 25 25 24 24 22 20 21 22 22 21 21 20 19 19 18 18 19 18 17
16 17 18 19 19 20 20 21 23 24 26 28 30 31 32 31 29 29 29 30 31 31 32 33 33 33 33 33 34 35 35 35 35 35 35 34 35 35 35 35 34 34 34 33 33 33 33 32 32 32 32 31 30 29 29 29 29 29 29 28 28 28 28 28 27 27 27 26 26 26 25 24 25 25 24 23 21 20 20 19 19 19 19 19 19
14 15 16 17 17 18 19 20 22 25 28 29 30 30 30 29 28 28 28 29 30 31 32 32 32 32 32 32 33 33 33 34 34 35 35 36 36 36 36 36 36 35 34 34 34 34 34 34 33 33 32 30 29 29 29 29 29 29 29 29 29 29 29 29 29 29 29 29 29 29 28 27 26 25 24 22 21 20 20 19 19 18 19 20 20
13 13 14 14 14 16 17 19 21 24 26 27 27 27 27 27 27 26 27 28 29 30 31 32 32 32 32 32 32 33 33 33 34 35 36 36 36 36 36 36 36 35 35 34 34 33 33 33 32 32 31 30 30 30 29 29 29 29 29 29 29 29 30 31 31 31 31 30 30 29 27 26 25 23 22 21 20 20 20 19 18 18 19 19 19
14 13 14 14 14 13 14 16 17 19 21 22 23 24 25 25 25 25 26 28 29 30 31 32 32 32 32 32 32 33 33 33 33 34 35 35 35 35 36 36 35 35 34 34 33 33 33 32 32 32 31 31 30 30 30 30 30 29 29 29 29 30 31 30 30 29 28 27 26 25 24 23 22 21 21 20 20 20 20 20 20 19 19 18 18
17 15 14 14 15 14 13 12 13 15 17 19 21 22 23 24 24 25 26 28 29 30 31 32 33 33 33 33 33 32 33 32 33 33 33 34 34 34 34 34 34 35 35 35 35 34 34 33 33 32 32 31 31 30 30 30 29 29 28 28 28 28 28 26 24 24 23 23 22 22 21 21 20 20 20 20 21 21 21 21 21 21 21 20 19
18 17 15 13 13 15 14 12 12 13 15 17 19 21 22 22 23 24 25 28 29 31 31 32 33 32 33 33 32 32 32 31 31 32 32 31 32 32 33 33 34 35 35 35 35 34 34 34 33 33 32 31 30 29 28 27 26 25 25 25 24 24 22 20 20 20 19 19 19 19 19 19 19 20 20 21 22 23 23 23 23 23 23 23 22
16 16 15 13 12 13 13 13 14 14 16 17 18 19 20 21 22 23 25 27 29 30 31 32 32 32 32 31 30 30 30 29 29 30 30 29 30 31 31 32 32 33 33 33 33 33 32 32 31 30 29 27 26 25 24 23 22 22 22 22 21 20 19 18 18 18 18 18 19 19 20 20 20 21 22 23 23 23 23 24 24 24 25 25 25
13 13 14 13 12 11 12 13 14 15 16 17 17 18 18 19 20 22 24 26 28 29 30 31 32 32 32 31 30 29 28 27 27 28 28 28 29 29 29 29 29 29 29 30 30 30 29 28 27 26 25 23 22 21 21 21 21 21 20 19 19 18 18 19 19 19 19 20 20 20 21 22 22 23 24 24 24 24 24 25 25 25 25 26 26
12 11 12 12 11 11 11 12 13 14 15 16 16 16 16 17 19 20 22 24 26 28 29 29 30 31 31 31 30 29 28 28 27 27 28 27 28 28 27 27 27 27 26 26 26 27 26 25 24 23 22 22 21 21 21 21 20 19 18 19 18 19 19 19 19 19 19 20 20 20 22 23 23 24 24 24 24 25 25 25 25 25 25 25 25
13 12 11 11 10 10 9 10 11 13 14 15 15 15 15 16 18 20 21 22 24 26 28 28 29 30 30 30 29 28 28 28 28 28 28 28 28 27 26 26 26 25 25 24 23 24 24 23 22 22 22 21 21 20 20 19 19 18 19 19 19 19 19 19 19 19 19 19 20 21 22 23 23 23 24 24 25 25 24 24 25 25 24 24 23
13 12 12 11 10 9 9 9 10 11 12 14 14 15 16 17 19 20 22 23 24 25 28 29 29 29 29 29 28 27 26 27 27 28 28 28 28 27 26 26 25 24 24 23 23 23 23 22 21 21 21 20 19 18 18 18 18 18 19 19 19 19 19 19 19 19 19 20 21 22 22 22 22 23 23 23 24 24 23 22 23 23 23 22 21
13 12 12 12 11 9 9 9 10 11 12 14 15 16 17 19 20 22 23 25 26 27 29 29 30 30 29 28 28 27 26 26 25 25 25 25 26 25 25 25 25 25 24 24 24 23 22 21 20 19 18 18 17 17 18 18 18 18 18 18 18 18 18 18 19 19 20 20 21 21 21 21 21 21 21 21 21 21 21 20 20 21 21 21 20
13 13 13 13 12 11 10 10 11 12 13 15 16 17 18 20 22 23 24 26 27 28 30 30 30 30 29 28 28 27 27 26 24 24 23 23 23 24 24 24 24 23 22 22 22 21 20 19 18 18 17 17 17 17 17 17 17 17 17 17 17 17 17 18 18 19 19 19 19 19 19 19 19 19 19 19 19 19 19 19 19 20 20 20 20
14 14 14 13 13 12 12 12 12 13 14 16 18 19 19 21 22 23 24 26 27 27 28 28 28 28 27 27 27 27 26 25 24 23 22 22 21 21 22 21 21 20 20 19 19 18 18 18 17 17 17 16 16 16 16 16 15 15 15 15 16 16 16 17 17 17 18 18 18 18 18 18 18 17 17 17 17 18 17 17 18 18 18 18 18
15 15 14 14 13 13 13 13 13 14 15 17 18 19 20 21 22 22 23 24 25 25 25 24 25 25 24 24 23 23 23 23 22 21 21 20 19 19 18 18 18 18 17 17 17 16 17 17 16 16 16 15 15 15 14 14 14 13 13 14 14 14 15 15 15 15 16 16 16 16 16 16 16 16 16 16 16 16 16 16 17 17 16 17 18
15 15 15 14 13 13 13 14 15 16 17 18 19 20 21 22 22 22 21 22 22 22 22 22 22 22 22 22 21 20 19 20 20 19 18 18 17 16 16 16 15 15 15 15 15 15 15 15 15 15 15 14 14 13 13 12 12 12 12 12 12 13 13 13 13 14 14 14 14 14 14 15 14 14 14 15 15 16 16 16 17 17 17 17 18
16 16 15 14 14 14 14 14 15 16 17 18 20 21 22 23 23 22 22 23 24 24 23 23 22 22 21 21 20 20 19 19 18 17 16 16 16 15 15 14 14 14 13 13 13 13 13 13 13 13 13 13 12 12 11 11 11 11 11 11 11 11 11 11 12 12 13 13 13 13 14 14 14 14 15 15 16 16 17 17 18 18 18 19 19
17 17 16 16 15 15 15 16 16 17 18 19 20 21 23 25 26 25 25 25 26 26 26 25 24 23 21 19 18 18 19 18 16 16 15 15 14 14 13 13 13 13 12 12 11 12 12 12 12 12 12 11 11 11 11 11 11 11 11 11 11 11 11 11 12 12 12 13 13 14 14 15 15 15 16 16 17 17 18 19 19 19 19 20 20
17 17 17 17 17 17 17 17 18 18 19 20 21 21 22 24 26 27 27 27 26 26 25 23 22 20 19 17 16 16 16 16 14 14 14 13 12 12 12 11 12 12 11 11 11 12 12 12 12 12 12 12 11 11 11 11 11 11 11 11 11 11 12 12 12 13 13 14 14 15 15 15 16 16 17 18 18 19 19 20 20 21 21 21 22
17 17 17 17 17 18 18 18 18 19 20 20 21 22 23 24 25 26 27 28 28 26 24 23 21 19 18 17 16 15 15 14 13 13 13 12 12 12 12 11 11 12 12 12 12 12 12 12 12 12 11 11 11 11 11 11 11 11 11 11 11 12 12 13 13 14 14 14 15 16 16 17 17 17 18 19 19 20 20 21 21 22 22 23 24
17 17 18 19 19 19 19 19 19 19 20 20 20 21 22 22 23 23 24 25 25 24 23 21 20 18 17 16 15 15 14 13 13 13 13 13 13 13 13 13 13 13 13 13 13 13 12 12 12 11 11 11 11 11 10 10 11 11 11 11 11 12 12 13 13 14 15 15 16 17 17 18 18 18 19 20 20 21 21 21 21 22 22 23 24
17 18 19 20 21 20 20 20 20 20 19 20 20 20 19 19 19 20 21 21 21 20 20 19 18 17 16 15 14 14 13 13 13 13 12 13 13 12 12 12 12 12 12 12 12 12 11 11 10 10 10 10 9 10 10 10 10 11 11 12 12 12 13 14 14 15 16 17 17 18 18 19 19 19 20 20 20 21 21 21 21 21 21 22 22
16 17 19 20 20 20 21 21 21 20 20 20 20 19 19 19 19 19 20 20 19 19 18 18 17 16 16 15 15 14 13 13 12 12 11 11 11 10 10 10 10 10 10 10 9 9 9 9 9 9 9 9 9 10 10 10 11 12 12 13 14 14 15 15 16 16 17 17 18 18 18 19 19 19 19 19 19 19 19 19 19 20 19 20 20
15 16 18 19 19 20 20 21 21 21 21 21 20 20 19 19 19 19 19 19 18 18 17 17 16 16 15 15 14 14 13 12 11 10 10 9 9 9 8 8 8 8 8 8 8 7 8 8 8 8 9 9 10 10 11 12 12 13 13 14 15 15 15 16 16 16 17 17 17 17 17 18 18 18 18 17 18 18 18 18 18 19 19 19 19
14 15 16 17 18 18 19 19 20 20 20 20 20 19 18 18 18 18 18 18 17 17 16 16 15 14 14 13 13 12 11 10 10 9 9 8 8 8 7 7 7 7 7 7 7 7 7 8 8 9 9 10 10 11 11 12 12 13 13 14 14 15 15 16 16 16 16 17 17 17 17 18 18 18 18 18 18 19 19 19 19 20 20 20 20
11 13 14 14 14 15 16 16 16 17 17 18 18 17 17 17 17 16 16 16 16 16 15 15 14 13 13 12 11 11 10 10 9 8 8 7 7 6 6 6 6 6 6 6 7 7 7 8 8 9 9 10 10 11 11 12 12 13 13 14 14 15 15 15 16 17 17 17 17 18 18 19 19 19 19 19 20 20 20 20 21 21 21 21 22
8 9 11 11 11 12 12 13 13 14 14 15 16 17 17 17 16 15 15 14 14 15 14 13 13 12 11 10 10 9 8 8 7 6 6 5 5 5 5 5 5 5 6 6 7 7 7 8 8 9 9 10 10 11 12 12 13 14 14 15 15 15 16 16 17 18 18 19 19 19 20 20 20 20 20 20 21 21 21 21 21 22 22 22 22
6 7 8 9 9 10 10 11 12 13 13 13 14 14 15 15 15 14 14 13 13 13 12 11 11 10 9 8 8 7 6 6 5 5 5 5 5 5 5 5 5 6 6 7 7 7 8 8 9 10 10 11 12 12 13 14 15 15 16 16 17 17 17 18 19 20 20 21 21 21 21 21 21 21 21 21 21 22 22 22 22 22 22 23 23
5 6 8 8 8 9 10 11 12 12 12 12 12 12 12 13 13 13 12 11 11 10 10 10 9 9 8 7 7 6 6 5 5 5 5 5 5 5 5 6 6 7 7 8 8 8 9 10 10 11 12 12 13 14 15 16 17 17 18 18 19 19 19 19 20 21 22 23 22 22 22 22 22 22 21 21 22 22 22 22 22 22 22 23 23
6 6 7 8 8 9 9 10 11 11 11 11 11 11 11 11 11 11 11 10 9 9 9 8 8 8 7 7 6 6 6 5 5 5 5 5 6 6 7 7 8 8 9 10 10 11 11 12 12 13 14 14 15 16 17 18 19 20 20 21 21 21 21 21 22 23 24 24 23 22 23 23 22 22 22 22 22 23 23 22 22 23 23 23 23
6 6 7 7 7 8 8 8 9 9 9 10 10 9 9 9 9 9 9 9 8 8 7 7 6 6 6 6 5 5 5 5 5 6 6 7 7 8 9 9 10 11 12 12 13 14 14 15 16 16 16 17 18 19 20 20 21 22 23 23 23 23 23 23 24 24 24 24 24 23 24 24 23 22 23 23 23 23 23 22 23 23 23 23 24
4 5 5 5 6 6 6 7 7 7 8 8 8 8 8 7 7 7 7 7 7 7 6 6 6 5 5 5 6 6 6 6 7 8 8 9 9 10 11 12 12 13 14 15 16 17 17 18 19 20 20 20 21 22 22 23 23 24 25 25 25 25 25 24 25 25 25 25 25 25 25 25 24 24 24 24 24 24 24 23 23 23 23 24 24
2 3 3 4 4 5 5 6 6 6 6 6 6 6 6 6 6 6 6 7 6 6 6 6 6 7 7 7 7 8 8 9 9 10 10 11 12 12 13 14 14 15 16 17 18 19 20 21 22 22 23 23 24 24 25 25 26 26 27 27 27 27 27 27 27 27 27 26 27 26 26 26 25 25 25 24 24 24 24 24 24 24 24 24 24
1 2 3 3 4 5 5 5 6 6 6 6 6 6 6 6 6 6 7 7 6 6 7 7 8 8 9 9 9 10 10 11 11 12 12 13 14 14 15 16 17 18 18 19 20 21 22 23 24 25 25 26 26 27 27 28 28 28 29 29 29 29 29 29 29 28 28 28 28 27 27 27 26 26 25 25 25 24 24 24 23 23 23 23 24
3 3 4 4 5 5 5 6 6 6 6 6 6 6 6 6 7 7 7 7 7 7 8 9 9 10 10 11 12 12 13 13 14 14 14 15 16 17 18 19 19 20 21 22 22 23 24 25 26 27 28 28 29 29 30 30 30 30 30 30 30 30 30 30 30 29 29 29 29 28 28 28 27 26 26 25 24 24 24 23 23 23 23 23 24
5 5 6 7 7 7 7 8 8 8 8 8 8 8 8 8 8 8 9 9 9 9 10 11 11 12 12 13 14 15 15 16 16 16 17 18 19 19 20 21 22 23 24 24 25 26 27 27 28 29 30 30 31 31 31 31 31 31 31 31 31 31 31 31 30 29 29 28 29 29 29 29 28 27 26 25 24 24 24 23 23 24 23 24 24
Wind_Direction
176 210 242 265 272 275 274 272 269 265 262 260 258 256 252 249 247 245 243 242 239 236 234 231 228 225 223 222 220 218 217 216 216 216 215 217 218 218 219 219 219 220 220 220 222 223 225 225 224 224 225 226 226 226 227 227 227 228 230 231 233 233 234 236 239 244 248 248 249 251 251 250 248 246 248 250 252 253 255 257 258 259 260 258 255
226 251 267 275 275 273 270 271 272 271 269 267 266 264 260 257 252 247 244 241 239 236 234 232 229 226 224 222 220 219 218 217 217 216 216 217 218 218 219 219 220 220 219 220 222 223 225 225 225 224 225 226 227 227 227 227 227 228 230 231 233 234 235 237 240 244 248 250 250 251 252 253 252 249 249 251 253 254 254 255 256 257 258 259 260
240 256 265 270 271 271 271 270 269 270 272 272 270 267 264 261 256 251 248 244 240 236 233 231 229 227 225 223 222 220 219 219 219 218 218 218 218 219 219 219 220 220 220 221 222 223 225 226 225 225 225 226 227 227 227 227 227 228 230 231 233 235 235 237 239 241 245 249 251 252 252 252 254 252 251 251 251 250 250 251 252 253 254 255 256
252 263 268 270 269 269 269 269 267 269 273 276 274 267 260 258 255 252 250 246 242 237 233 230 228 227 226 224 223 222 221 220 220 220 220 220 220 220 220 221 221 221 222 222 223 224 225 226 226 225 225 226 227 227 227 228 228 228 229 230 232 234 234 236 239 241 244 245 248 253 255 254 254 253 253 253 252 251 250 250 251 252 253 253 254
262 269 269 269 268 268 269 266 264 265 267 271 273 269 261 255 253 252 250 247 244 239 234 230 227 227 226 226 225 224 222 222 222 222 222 221 221 221 221 222 223 223 223 223 224 225 226 227 227 226 226 227 228 228 228 228 229 229 229 230 231 233 234 236 238 240 243 244 244 248 254 257 258 257 255 255 256 257 257 256 255 256 256 255 255
265 267 266 267 267 266 266 264 263 262 261 262 266 267 263 257 252 251 250 248 246 241 237 233 230 229 228 227 226 225 223 223 223 222 222 221 221 221 221 222 223 224 224 224 225 226 227 227 227 226 226 228 229 229 229 229 230 230 230 230 231 232 233 235 237 239 241 244 244 243 248 255 259 261 260 259 260 261 262 262 261 260 260 260 259
263 262 263 267 267 264 262 262 262 261 259 259 261 262 261 259 254 251 249 247 245 242 239 236 234 231 229 227 226 224 223 223 223 222 221 221 220 220 221 221 222 223 224 224 225 226 227 227 227 227 227 228 229 229 229 229 230 231 231 230 230 231 232 234 236 239 241 243 244 243 243 248 255 260 262 263 264 265 266 267 268 267 265 264 264
263 262 262 263 261 259 259 260 259 257 257 256 257 257 257 258 256 250 247 245 244 242 241 238 235 232 229 226 225 223 222 222 222 221 220 220 220 221 221 222 222 223 223 224 224 226 227 227 227 227 227 228 229 230 229 229 230 231 230 230 229 229 231 232 234 236 239 242 245 245 244 244 249 255 261 265 268 271 272 273 274 274 272 271 271
269 265 262 260 258 257 256 255 254 252 251 252 253 254 255 256 254 250 246 244 243 242 240 238 235 232 229 226 223 222 221 221 221 221 220 220 220 220 221 222 223 223 224 224 224 225 226 227 227 228 228 228 228 229 229 229 230 231 231 230 229 229 229 231 232 234 237 242 245 248 248 247 248 253 259 264 267 270 273 274 275 277 277 277 277
268 264 261 259 258 257 252 248 247 246 246 248 251 252 254 255 253 249 246 244 243 241 238 237 235 232 229 226 224 222 222 222 221 220 220 220 220 220 221 221 222 223 223 223 224 225 225 226 227 227 226 226 226 226 227 227 228 230 231 231 230 230 230 230 232 234 238 243 247 251 254 254 253 254 256 259 260 262 266 269 270 273 276 280 282
265 262 260 260 260 257 251 245 243 242 242 244 247 250 253 254 252 248 244 243 241 239 237 236 234 232 230 227 226 224 223 222 220 219 219 219 220 221 221 222 222 223 223 223 224 225 225 226 226 225 225 224 225 225 226 227 228 230 231 231 231 232 232 233 235 237 240 243 247 251 254 257 257 253 248 248 249 250 253 256 259 265 270 276 280
265 264 262 262 261 259 255 248 243 241 241 242 244 248 251 253 252 248 244 242 240 239 237 236 235 233 231 228 226 225 225 223 221 219 219 219 219 220 221 222 223 223 224 224 224 225 226 226 226 225 225 225 225 226 226 227 228 229 230 231 231 232 232 234 236 239 241 244 247 250 252 253 253 246 236 233 234 236 241 246 249 255 263 268 272
263 261 260 259 258 257 256 250 243 242 241 240 241 245 249 252 251 248 245 242 239 238 237 235 234 232 230 228 227 225 224 223 221 220 220 219 219 219 220 222 223 224 225 225 225 225 225 225 225 225 225 224 224 225 226 226 226 226 227 227 229 230 231 232 233 235 236 238 240 243 243 243 244 238 228 227 229 231 235 240 246 251 258 264 269
260 258 255 255 254 253 252 248 244 243 240 237 237 242 248 251 251 249 245 241 239 237 236 234 233 232 230 228 227 225 224 223 221 221 221 220 220 220 221 222 222 222 223 224 224 225 225 225 225 225 225 224 225 224 225 225 225 225 226 226 228 229 230 231 231 231 231 230 231 233 231 230 234 233 227 228 233 235 236 240 245 249 254 260 266
260 258 256 255 254 253 251 247 244 241 236 233 236 242 247 249 250 249 246 243 240 238 236 234 232 231 230 227 226 225 224 222 221 220 221 221 220 220 221 221 221 221 221 221 221 222 223 223 224 224 225 225 225 225 224 224 224 224 226 227 228 229 229 230 229 228 228 226 226 227 224 221 227 232 231 231 235 239 243 246 249 253 256 260 264
263 260 259 257 255 253 251 247 244 240 237 238 242 245 247 248 250 250 247 244 241 238 236 234 233 232 229 227 225 224 223 221 219 218 218 219 218 218 219 219 219 220 219 219 219 219 219 220 220 221 222 223 223 223 223 223 223 224 226 227 227 228 228 228 228 226 226 224 223 224 223 220 225 231 234 236 239 243 248 251 255 259 263 266 268
285 275 269 263 258 256 254 251 247 244 244 246 247 247 247 248 251 251 248 245 241 238 235 233 232 231 229 227 226 223 222 219 217 217 216 216 217 217 217 218 218 218 218 217 217 216 216 217 218 219 220 220 221 221 221 222 223 224 226 226 226 226 226 226 226 225 224 224 223 224 225 224 226 232 237 241 244 248 252 256 261 265 269 271 273
318 307 296 283 270 261 257 254 252 249 248 247 246 246 247 250 253 253 249 246 241 236 233 230 229 228 226 226 226 224 222 219 217 216 216 216 217 217 217 217 216 216 216 215 215 215 216 217 218 219 220 219 220 220 220 220 221 222 224 224 224 225 225 225 226 226 226 227 228 229 231 231 233 236 241 246 249 252 255 259 262 265 267 270 273
345 334 323 310 296 280 266 260 257 252 248 245 243 245 248 252 255 253 248 244 238 233 230 227 226 224 223 223 223 223 222 219 216 216 216 216 216 216 216 216 215 215 215 215 214 214 215 216 218 219 219 219 219 219 218 218 219 220 221 222 224 226 228 229 230 232 234 236 237 239 240 241 241 241 243 247 250 253 255 257 259 261 264 268 270
353 348 338 324 312 302 289 275 264 255 251 249 249 251 253 254 254 251 245 239 233 229 227 224 223 222 220 219 219 219 219 218 216 216 215 215 215 215 216 216 216 215 214 214 214 214 214 215 217 218 218 218 218 219 219 220 221 223 225 227 229 232 235 237 239 241 242 242 242 242 243 243 243 243 244 246 247 250 252 254 257 260 263 266 268
349 346 340 330 316 306 300 290 278 267 261 260 259 259 258 256 253 247 241 235 229 225 224 222 220 220 218 217 217 216 216 216 215 214 213 214 214 214 215 215 216 216 215 213 214 215 215 215 216 217 219 220 221 223 225 226 228 230 232 234 235 237 238 237 236 238 239 238 238 238 238 239 240 241 242 243 245 248 251 254 258 261 264 266 267
341 340 336 330 317 303 297 292 285 278 272 268 266 263 260 255 249 242 236 231 226 222 220 219 216 215 213 211 211 213 213 212 211 210 209 209 211 212 213 215 216 218 217 215 214 215 216 217 218 220 222 223 225 226 226 227 227 227 228 229 230 231 230 228 228 229 230 231 232 234 236 237 238 239 241 244 247 250 253 256 259 261 263 265 266
330 330 327 323 316 302 292 286 283 280 275 270 267 264 260 253 245 238 233 229 224 220 217 215 213 211 210 207 205 206 206 205 206 206 205 206 208 210 212 214 216 219 220 220 219 218 218 219 220 221 221 220 219 218 217 217 219 220 222 223 224 225 226 227 227 227 229 231 233 234 236 238 239 242 244 247 250 253 256 258 260 261 261 262 263
321 320 315 314 310 299 289 282 279 277 272 267 263 259 255 249 241 235 231 228 224 219 214 212 210 208 207 205 203 202 202 200 200 203 204 206 208 211 212 213 216 217 218 220 221 219 217 217 215 213 212 209 208 209 211 214 216 218 219 220 221 223 226 229 230 231 233 236 237 238 241 243 245 248 251 252 253 255 257 259 261 261 261 261 260
312 311 306 304 303 296 289 281 275 273 267 261 256 251 245 240 235 230 226 224 223 219 213 210 208 207 205 204 202 202 202 201 200 201 202 204 206 209 209 209 211 212 212 212 212 211 210 208 206 204 206 207 207 209 212 215 216 216 218 222 224 226 229 232 234 236 237 240 242 244 248 251 253 255 257 258 259 259 260 261 263 263 263 263 262
300 299 296 295 294 291 288 282 273 267 261 254 249 243 236 230 227 224 220 218 218 216 212 209 207 207 206 205 203 202 202 202 202 201 201 200 201 202 202 202 203 202 201 201 201 201 200 200 201 203 206 208 209 211 213 216 218 220 223 226 228 230 232 235 237 240 242 244 247 251 253 255 257 259 261 262 263 264 265 265 267 267 267 265 263
290 288 286 287 286 280 275 269 262 256 252 246 241 237 233 226 222 220 217 214 213 211 210 209 208 207 207 205 203 200 197 197 198 199 198 197 197 195 195 195 195 194 194 195 196 197 197 198 200 203 206 208 210 212 216 219 221 224 226 227 230 233 236 238 241 244 246 248 252 254 256 258 259 260 261 263 264 266 267 268 268 269 269 267 265
288 286 283 282 280 273 264 256 250 245 240 235 231 230 229 225 223 220 217 214 213 212 210 209 208 207 206 204 200 196 192 190 190 190 190 191 192 191 190 191 192 192 194 196 196 197 198 199 201 203 206 209 212 215 218 221 223 225 227 230 234 237 239 241 244 247 249 251 254 255 257 257 258 258 260 262 264 266 266 267 267 267 268 268 267
285 283 280 277 273 267 259 252 246 240 235 230 225 223 222 222 222 221 219 216 214 214 215 214 211 208 205 202 198 194 191 188 186 186 185 186 188 190 191 192 192 192 193 195 196 198 200 202 204 207 209 212 215 218 221 223 226 229 233 236 240 242 244 246 247 249 251 253 254 255 256 256 256 257 259 261 263 264 265 266 266 267 268 269 270
277 274 271 267 263 259 253 247 241 236 232 229 225 220 216 213 214 216 218 216 214 215 217 217 214 210 206 201 197 196 194 190 187 185 185 185 187 190 192 194 195 195 195 196 198 201 203 205 207 209 212 214 217 220 224 227 231 235 238 241 243 244 245 247 249 250 252 254 254 254 253 253 254 255 257 260 262 264 266 267 268 269 271 273 274
266 263 259 256 253 249 245 240 234 229 225 223 223 220 215 209 205 205 207 207 206 208 210 209 205 202 200 198 194 192 193 193 192 190 189 189 190 192 193 194 195 196 197 198 200 202 204 206 208 209 211 213 216 220 225 229 233 236 238 239 242 243 245 247 249 250 251 251 250 250 249 250 252 253 255 258 261 263 266 268 270 272 273 275 277
257 255 252 247 241 236 232 229 225 222 218 215 214 214 212 208 201 196 195 195 193 192 194 195 195 194 195 198 196 193 193 194 193 191 190 191 191 191 193 194 194 194 195 197 200 203 203 204 205 206 207 210 214 218 222 225 229 231 233 236 238 241 244 246 246 247 246 245 246 249 251 253 256 257 259 260 261 265 268 269 271 273 275 276 278
253 252 248 241 233 226 221 217 215 213 210 208 206 205 207 206 201 196 193 192 191 191 190 191 193 193 195 198 200 200 199 197 192 188 189 191 191 191 192 192 192 194 195 195 197 199 199 199 201 203 204 207 211 215 219 222 225 228 231 235 237 239 243 244 244 246 247 248 251 254 257 260 262 263 265 267 268 270 271 273 275 277 279 280 281
253 250 245 238 231 225 218 214 211 207 204 202 200 198 199 200 200 198 193 190 189 190 190 191 193 195 197 198 199 201 201 198 193 190 191 192 191 190 191 191 191 192 191 190 193 196 196 197 199 201 204 206 209 213 217 220 225 229 231 235 238 240 243 246 249 251 254 257 260 262 264 266 268 269 271 272 273 274 275 277 279 281 282 283 284
251 247 241 234 228 223 216 211 209 207 204 201 198 195 194 193 194 195 194 191 189 189 188 189 189 191 193 193 192 193 195 195 194 192 192 193 192 191 191 191 192 192 189 189 193 195 196 198 199 201 205 207 209 214 218 221 226 230 232 236 239 242 245 249 253 257 260 263 265 267 269 270 270 271 272 272 272 273 274 275 276 277 278 280 281
245 241 236 229 223 218 213 207 204 203 203 203 201 199 197 195 195 195 194 193 192 190 190 190 188 188 189 189 188 189 190 190 191 190 191 192 193 193 193 193 194 194 192 192 195 195 196 198 200 201 206 209 211 216 221 224 229 233 237 241 244 247 251 254 256 259 262 264 265 267 268 269 269 270 270 269 269 270 271 272 273 273 273 274 275
240 236 231 225 220 215 209 205 199 196 197 198 197 196 195 193 194 194 192 191 192 191 191 192 191 190 189 189 189 190 189 189 190 190 190 191 192 192 193 195 195 195 194 194 196 197 198 202 204 206 211 215 219 225 230 235 240 244 248 252 254 256 258 260 261 262 263 263 265 266 266 267 267 267 268 269 270 270 271 272 272 272 273 273 273
236 232 227 223 217 211 207 201 195 190 191 192 192 194 194 191 190 191 190 189 190 191 191 192 191 191 191 190 190 190 190 190 191 191 191 192 192 191 193 195 196 197 197 199 202 204 207 212 216 220 225 230 234 239 244 247 251 253 256 258 260 261 262 262 263 264 265 264 265 266 266 267 268 268 269 271 272 273 274 275 274 275 275 275 275
229 224 219 215 212 208 203 198 193 189 189 191 192 195 196 195 192 191 190 189 188 188 188 187 185 185 186 186 187 187 187 187 189 190 191 192 191 192 195 197 200 202 204 207 214 216 219 225 231 233 237 240 243 246 249 251 253 255 257 259 261 262 264 264 264 265 266 267 268 268 269 270 272 273 274 275 276 277 279 279 279 280 280 280 280
225 216 209 206 206 203 199 196 193 191 190 192 192 193 194 194 192 189 187 185 183 181 180 179 179 179 180 181 182 183 184 186 188 190 192 193 194 196 199 200 204 208 210 214 222 225 227 231 235 237 240 242 245 247 249 251 253 255 256 258 260 262 264 265 267 267 268 269 271 272 274 276 277 278 280 281 282 283 284 284 284 285 285 285 284
227 215 205 200 199 198 194 191 190 189 189 190 189 187 187 187 185 183 182 180 178 177 175 174 175 177 178 180 182 182 184 189 192 192 194 197 200 202 205 207 210 215 219 222 228 232 235 238 241 244 246 249 250 252 254 256 257 259 260 262 264 266 267 269 271 272 273 274 276 277 278 280 281 282 283 283 284 285 285 285 285 285 286 286 287
223 216 206 197 192 190 188 183 180 180 181 182 181 179 179 178 177 177 176 175 174 174 172 172 175 177 179 183 186 186 189 194 197 197 200 207 212 214 218 223 225 230 235 238 241 245 249 252 255 257 259 261 263 264 265 266 267 268 269 270 271 272 273 274 276 276 277 278 278 279 280 280 281 281 282 282 283 283 283 283 284 284 285 286 286
205 204 197 188 183 180 178 175 173 172 173 174 175 174 173 171 171 171 172 172 173 172 171 171 174 176 179 185 191 194 198 202 206 211 217 225 232 236 240 244 247 251 254 256 259 262 264 265 267 269 270 272 273 273 274 275 274 275 275 276 276 276 276 277 278 278 278 277 277 278 278 278 279 280 280 280 281 281 282 282 283 284 285 286 286
180 184 181 175 171 169 168 167 167 167 169 172 173 172 171 170 169 170 171 172 173 172 172 173 174 176 182 188 193 200 207 211 217 227 235 245 254 259 263 266 267 270 271 271 272 273 272 273 274 274 275 276 276 276 277 276 276 277 277 277 276 277 277 277 277 276 275 275 276 277 277 277 277 278 279 279 279 280 280 282 283 284 285 286 287
160 166 166 164 164 165 165 164 165 166 169 172 174 175 175 174 173 173 173 173 174 175 177 179 178 180 187 194 200 209 216 222 230 238 246 254 261 267 272 274 276 278 279 279 280 280 279 278 278 277 277 277 276 276 277 276 277 278 277 277 277 277 276 275 274 273 274 275 276 276 275 275 276 277 278 278 278 278 280 281 282 283 284 285 285
155 157 158 160 164 166 167 168 168 168 171 174 176 178 178 177 177 178 177 177 178 180 183 186 188 191 197 206 215 224 232 240 247 252 258 263 267 271 274 277 279 282 283 283 284 285 284 284 283 281 281 279 278 278 278 277 276 276 276 275 275 275 273 272 271 271 272 273 273 273 273 274 275 276 276 276 277 278 279 280 280 280 281 281 281
153 156 159 165 169 171 174 175 175 176 179 180 181 183 184 184 185 187 186 186 186 188 192 198 204 211 217 225 235 243 249 256 261 265 268 271 273 276 278 280 282 283 284 284 286 286 285 285 284 283 282 281 280 279 278 277 276 275 275 274 274 274 273 272 271 270 271 271 271 272 272 273 273 273 273 274 274 275 276 276 276 276 276 277 277
156 164 172 177 180 184 187 189 189 191 193 193 193 194 196 197 198 200 203 205 204 205 209 214 221 227 233 239 245 251 255 259 263 266 269 271 274 276 279 280 281 282 282 283 284 283 283 283 283 282 282 281 280 279 278 277 276 275 274 274 274 273 272 271 270 270 270 269 269 269 269 269 269 269 269 269 270 271 271 272 272 273 273 274 275
212 205 206 208 208 206 207 208 208 209 209 211 213 213 213 216 219 221 223 225 226 227 232 235 239 243 247 249 253 256 259 261 264 266 269 272 274 276 278 279 280 281 282 282 282 282 282 282 282 282 281 281 280 279 278 276 275 274 273 273 272 271 270 269 268 268 268 267 267 266 266 266 265 265 265 265 266 267 268 269 270 271 272 272 273
259 251 247 243 237 233 233 232 231 233 234 233 234 236 236 236 238 240 242 245 246 247 249 251 253 256 259 260 262 264 266 267 269 271 273 275 276 278 279 280 281 282 282 282 282 282 282 282 282 282 282 281 280 279 278 277 276 275 274 273 271 270 269 268 268 267 266 265 265 264 263 263 262 262 262 263 264 265 266 267 268 269 270 271 271
264 261 261 259 256 254 253 250 250 252 252 251 252 254 253 254 255 256 257 258 258 258 260 261 263 265 267 268 270 271 272 273 274 275 276 277 278 278 279 280 281 281 281 282 282 282 282 282 282 282 282 281 280 279 278 277 276 275 274 273 272 270 270 269 268 267 265 264 263 262 261 261 261 260 260 261 262 263 264 265 266 267 268 269 270